Hourly Weather Barnim

Today, 8 May, Saturday

Time Temperature Precipitation Wind Pressure Humidity
00:00 0°C° 0 mm 4 mps 758 mmHg 94%
01:00 0°C° 0 mm 4 mps 758 mmHg 95%
02:00 0°C° 0 mm 4 mps 758 mmHg 95%
03:00 0°C° 0 mm 3 mps 759 mmHg 96%
04:00 0°C° 0 mm 3 mps 759 mmHg 97%
05:00 0°C° 0 mm 4 mps 759 mmHg 94%
06:00 +1°C° 0 mm 4 mps 759 mmHg 91%
07:00 +3°C° 0 mm 5 mps 760 mmHg 88%
08:00 +5°C° 0 mm 5 mps 760 mmHg 78%
09:00 +7°C° 0 mm 5 mps 760 mmHg 67%
10:00 +9°C° 0 mm 5 mps 760 mmHg 57%
11:00 +9°C° 0 mm 5 mps 760 mmHg 52%
12:00 +10°C° 0 mm 5 mps 760 mmHg 48%
13:00 +12°C° 0 mm 4 mps 760 mmHg 43%
14:00 +12°C° 0 mm 4 mps 760 mmHg 44%
15:00 +12°C° 0 mm 4 mps 760 mmHg 44%
16:00 +13°C° 0 mm 3 mps 759 mmHg 44%
17:00 +11°C° 0 mm 3 mps 759 mmHg 50%
18:00 +10°C° 0 mm 2 mps 759 mmHg 57%
19:00 +9°C° 0 mm 2 mps 759 mmHg 63%
20:00 +8°C° 0 mm 2 mps 759 mmHg 62%
21:00 +8°C° 0 mm 3 mps 759 mmHg 61%
22:00 +7°C° 0 mm 3 mps 759 mmHg 60%
23:00 +7°C° 0 mm 3 mps 759 mmHg 59%

Tomorrow, 9 May, Sunday

Time Temperature Precipitation Wind Pressure Humidity
00:00 +6°C° 0 mm 4 mps 758 mmHg 59%
01:00 +6°C° 0 mm 4 mps 758 mmHg 59%
02:00 +6°C° 0 mm 5 mps 758 mmHg 61%
03:00 +7°C° 0 mm 5 mps 757 mmHg 64%
04:00 +7°C° 0 mm 6 mps 756 mmHg 67%
05:00 +7°C° 0.1 mm 5 mps 756 mmHg 68%
06:00 +8°C° 0.1 mm 5 mps 756 mmHg 68%
07:00 +8°C° 0.1 mm 5 mps 756 mmHg 69%
08:00 +12°C° 0 mm 5 mps 756 mmHg 66%
09:00 +14°C° 0 mm 5 mps 756 mmHg 63%
10:00 +17°C° 0 mm 6 mps 756 mmHg 60%
11:00 +19°C° 0 mm 6 mps 756 mmHg 57%
12:00 +20°C° 0 mm 6 mps 756 mmHg 55%
13:00 +22°C° 0 mm 6 mps 756 mmHg 52%
14:00 +22°C° 0 mm 5 mps 755 mmHg 53%
15:00 +22°C° 0 mm 5 mps 755 mmHg 55%
16:00 +22°C° 0 mm 4 mps 755 mmHg 56%
17:00 +21°C° 0 mm 4 mps 755 mmHg 62%
18:00 +19°C° 0 mm 4 mps 755 mmHg 67%
19:00 +18°C° 0 mm 3 mps 755 mmHg 72%
20:00 +15°C° 0 mm 4 mps 755 mmHg 77%
21:00 +14°C° 0 mm 4 mps 755 mmHg 81%
22:00 +13°C° 0 mm 4 mps 755 mmHg 85%
23:00 +13°C° 0 mm 4 mps 755 mmHg 86%

Day after tomorrow, 10 May, Monday

Time Temperature Precipitation Wind Pressure Humidity
00:00 +12°C° 0 mm 4 mps 755 mmHg 87%
01:00 +12°C° 0 mm 4 mps 755 mmHg 88%
02:00 +11°C° 0 mm 4 mps 755 mmHg 88%
03:00 +10°C° 0 mm 4 mps 754 mmHg 88%
04:00 +10°C° 0 mm 4 mps 754 mmHg 88%
05:00 +10°C° 0 mm 5 mps 754 mmHg 82%
06:00 +12°C° 0 mm 5 mps 754 mmHg 77%
07:00 +13°C° 0 mm 5 mps 754 mmHg 71%
08:00 +15°C° 0 mm 6 mps 754 mmHg 66%
09:00 +17°C° 0 mm 7 mps 754 mmHg 61%
10:00 +20°C° 0 mm 7 mps 753 mmHg 56%
11:00 +20°C° 0 mm 7 mps 753 mmHg 55%
12:00 +21°C° 0 mm 6 mps 753 mmHg 54%
13:00 +22°C° 0 mm 6 mps 753 mmHg 53%
14:00 +23°C° 0 mm 5 mps 753 mmHg 54%
15:00 +23°C° 0 mm 4 mps 753 mmHg 55%
16:00 +25°C° 0 mm 4 mps 753 mmHg 56%
17:00 +24°C° 0 mm 3 mps 754 mmHg 61%
18:00 +23°C° 0 mm 2 mps 754 mmHg 66%
19:00 +21°C° 0 mm 1 mps 754 mmHg 71%
20:00 +19°C° 0 mm 2 mps 754 mmHg 77%
21:00 +17°C° 0 mm 2 mps 754 mmHg 82%
22:00 +16°C° 0 mm 3 mps 755 mmHg 87%
23:00 +14°C° 0 mm 3 mps 754 mmHg 90%

11 May, Tuesday

Time Temperature Precipitation Wind Pressure Humidity
00:00 +13°C° 0 mm 3 mps 754 mmHg 92%
01:00 +13°C° 0 mm 3 mps 754 mmHg 95%
02:00 +12°C° 0 mm 3 mps 754 mmHg 95%
03:00 +12°C° 0 mm 3 mps 754 mmHg 96%
04:00 +12°C° 0 mm 3 mps 753 mmHg 96%
05:00 +13°C° 0 mm 3 mps 753 mmHg 91%
06:00 +16°C° 0 mm 3 mps 753 mmHg 86%
07:00 +17°C° 0 mm 4 mps 752 mmHg 81%
08:00 +19°C° 0 mm 4 mps 752 mmHg 76%
09:00 +20°C° 0 mm 4 mps 752 mmHg 70%
10:00 +22°C° 0 mm 3 mps 752 mmHg 65%
11:00 +24°C° 0 mm 3 mps 752 mmHg 62%
12:00 +24°C° 0 mm 3 mps 751 mmHg 59%
13:00 +25°C° 0 mm 3 mps 751 mmHg 56%
14:00 +25°C° 0 mm 2 mps 751 mmHg 60%
15:00 +24°C° 0 mm 2 mps 751 mmHg 63%
16:00 +23°C° 0 mm 2 mps 751 mmHg 66%
17:00 +21°C° 0 mm 2 mps 751 mmHg 73%
18:00 +19°C° 0 mm 2 mps 751 mmHg 79%
19:00 +18°C° 0 mm 2 mps 751 mmHg 85%
20:00 +17°C° 0 mm 2 mps 752 mmHg 85%
21:00 +17°C° 0 mm 2 mps 752 mmHg 86%
22:00 +16°C° 0 mm 2 mps 752 mmHg 86%
23:00 +16°C° 0 mm 2 mps 751 mmHg 88%

12 May, Wednesday

Time Temperature Precipitation Wind Pressure Humidity
00:00 +15°C° 0 mm 2 mps 751 mmHg 91%
01:00 +15°C° 0 mm 2 mps 751 mmHg 93%
02:00 +15°C° 0 mm 2 mps 751 mmHg 94%
03:00 +14°C° 0 mm 2 mps 751 mmHg 95%
04:00 +14°C° 0 mm 2 mps 751 mmHg 96%
05:00 +14°C° 0 mm 3 mps 751 mmHg 92%
06:00 +17°C° 0 mm 3 mps 751 mmHg 88%
07:00 +18°C° 0 mm 4 mps 750 mmHg 83%
08:00 +19°C° 0 mm 4 mps 751 mmHg 78%
09:00 +21°C° 0 mm 4 mps 751 mmHg 72%
10:00 +23°C° 0 mm 4 mps 751 mmHg 66%
11:00 +22°C° 0.1 mm 4 mps 751 mmHg 69%
12:00 +22°C° 0.1 mm 5 mps 751 mmHg 71%
13:00 +21°C° 0.1 mm 5 mps 751 mmHg 74%
14:00 +20°C° 0.1 mm 4 mps 752 mmHg 76%
15:00 +19°C° 0.1 mm 4 mps 752 mmHg 79%
16:00 +18°C° 0.1 mm 4 mps 752 mmHg 82%
17:00 +17°C° 0.4 mm 4 mps 752 mmHg 86%
18:00 +14°C° 0.4 mm 4 mps 753 mmHg 90%
19:00 +13°C° 0.4 mm 4 mps 753 mmHg 94%
20:00 +13°C° 0.5 mm 4 mps 753 mmHg 95%
21:00 +12°C° 0.5 mm 4 mps 753 mmHg 96%
22:00 +12°C° 0.5 mm 4 mps 753 mmHg 96%
23:00 +12°C° 0.1 mm 4 mps 753 mmHg 96%

13 May, Thursday

Time Temperature Precipitation Wind Pressure Humidity
00:00 +11°C° 0.1 mm 4 mps 753 mmHg 96%
01:00 +11°C° 0.1 mm 4 mps 753 mmHg 97%
02:00 +11°C° 0 mm 4 mps 753 mmHg 97%
03:00 +11°C° 0 mm 3 mps 753 mmHg 97%
04:00 +10°C° 0 mm 3 mps 753 mmHg 97%
05:00 +11°C° 0 mm 3 mps 753 mmHg 93%
06:00 +12°C° 0 mm 3 mps 753 mmHg 88%
07:00 +12°C° 0 mm 4 mps 753 mmHg 84%
08:00 +14°C° 0 mm 3 mps 753 mmHg 77%
09:00 +16°C° 0 mm 3 mps 753 mmHg 70%
10:00 +17°C° 0 mm 3 mps 753 mmHg 63%
11:00 +18°C° 0 mm 3 mps 753 mmHg 58%
12:00 +19°C° 0 mm 3 mps 753 mmHg 54%
13:00 +20°C° 0 mm 2 mps 752 mmHg 49%
14:00 +20°C° 0 mm 2 mps 752 mmHg 51%
15:00 +19°C° 0 mm 2 mps 752 mmHg 53%
16:00 +19°C° 0 mm 2 mps 752 mmHg 55%
17:00 +18°C° 0 mm 2 mps 752 mmHg 61%
18:00 +16°C° 0 mm 2 mps 752 mmHg 68%
19:00 +15°C° 0 mm 2 mps 752 mmHg 74%
20:00 +14°C° 0 mm 2 mps 752 mmHg 75%
21:00 +14°C° 0 mm 2 mps 752 mmHg 75%
22:00 +14°C° 0 mm 1 mps 752 mmHg 76%
23:00 +13°C° 0 mm 1 mps 752 mmHg 77%
Show more